Waarnemingen

Advertentie
Mijn weer
St-Hubert, België (6476): temperatuur & dauwpunt: 12.01.2021 01:00:00 - 18.01.2021 01:00:00 (CET)St-Hubert, België (6476): windsnelheid & windstoten: 12.01.2021 01:00:00 - 18.01.2021 01:00:00 (CET)St-Hubert, België (6476): windrichting: 12.01.2021 01:00:00 - 18.01.2021 01:00:00 (CET)St-Hubert, België (6476): luchtdruk: 12.01.2021 01:00:00 - 18.01.2021 01:00:00 (CET)St-Hubert, België (6476): zicht: 12.01.2021 01:00:00 - 18.01.2021 01:00:00 (CET)
Datum & Tijd tt [°C] td [°C] ff [km/u] ff [kn] fx [km/u] fx [kn] dd ppp [hPa] vv [km]
18.01.2021 01:00:00 0,1 -0,9 11 6 - - W 1026,6 -
18.01.2021 00:00:00 0,1 -0,8 14 8 22 12 WNW 1026,7 4,9
17.01.2021 23:00:00 0,2 -0,7 11 6 29 16 WNW 1026,4 5
17.01.2021 22:00:00 0,2 -0,9 18 10 - - WNW 1026,2 3,6
17.01.2021 21:00:00 0,3 -0,9 18 10 29 16 WNW 1025,9 -
17.01.2021 20:00:00 0,4 -0,9 18 10 29 16 WNW 1025,7 2,5
17.01.2021 19:00:00 0,5 0,2 14 8 - - WNW 1025,2 0,1
17.01.2021 18:00:00 0,5 -0,3 22 12 32 18 WNW 1024,5 -
17.01.2021 17:00:00 0,6 -0,3 25 14 40 21 WNW 1023,5 0,4
17.01.2021 16:00:00 0,6 0,1 18 10 - - WNW 1022,7 0,1
17.01.2021 15:00:00 0,5 -0,3 22 12 32 18 WNW 1022,0 0,1
17.01.2021 14:00:00 0,4 0,0 14 8 25 14 NW 1021,6 -
17.01.2021 13:00:00 0,2 -0,7 18 10 - - WNW 1021,1 0,1
17.01.2021 12:00:00 0,4 0,1 11 6 29 16 WNW 1020,9 -
17.01.2021 11:00:00 0,3 -0,1 18 10 29 16 WNW 1020,1 0,1
17.01.2021 10:00:00 0,2 -0,2 14 8 - - WNW 1019,3 -
17.01.2021 09:00:00 0,0 -0,4 18 10 32 18 WNW 1018,5 -
17.01.2021 08:00:00 -0,6 -1,3 7 4 14 8 W 1017,9 0,4
17.01.2021 07:00:00 -1,5 -2,3 7 4 - - WZW 1017,7 0,6
17.01.2021 06:00:00 -2,2 -3,0 4 2 7 4 ZW 1017,7 0,3
17.01.2021 05:00:00 -2,9 -3,5 4 2 11 6 ZZW 1017,7 0,7
17.01.2021 04:00:00 -3,5 -4,3 4 2 - - ZW 1017,7 0,2
17.01.2021 03:00:00 -3,6 -4,5 4 2 11 6 ZW 1017,4 0,2
17.01.2021 02:00:00 -4,0 -5,2 7 4 14 8 WZW 1017,8 3,0
17.01.2021 01:00:00 -4,0 -5,3 7 4 - - ZW 1018,0 2,5
17.01.2021 00:00:00 -4,1 -5,6 11 6 22 12 ZZW 1018,6 1,9
16.01.2021 23:00:00 -4,3 -5,8 11 6 25 14 ZZW 1018,9 1,2
16.01.2021 22:00:00 -4,5 -6,0 14 8 - - Z 1019,2 2,3
16.01.2021 21:00:00 -4,6 -6,1 14 8 32 18 Z 1019,7 2,0
16.01.2021 20:00:00 -4,7 -6,3 18 10 32 18 Z 1020,4 3,6
16.01.2021 19:00:00 -4,9 -6,3 14 8 - - Z 1021,0 1,4
16.01.2021 18:00:00 -4,8 -6,4 14 8 25 14 ZZW 1021,8 2,5
16.01.2021 17:00:00 -4,6 -6,2 11 6 25 14 Z 1022,8 1,6
16.01.2021 16:00:00 -4,3 -5,9 14 8 - - ZZW 1023,9 -
16.01.2021 15:00:00 -4,4 -5,9 11 6 25 14 Z 1024,3 -
16.01.2021 14:00:00 -4,3 -6,3 14 8 25 14 Z 1025,5 12
16.01.2021 13:00:00 -4,3 -6,9 11 6 - - Z 1026,8 21
16.01.2021 12:00:00 -4,2 -7,5 11 6 18 10 Z 1027,9 27
16.01.2021 11:00:00 -4,2 -7,2 7 4 18 10 Z 1028,5 18
16.01.2021 10:00:00 -4,2 -6,9 7 4 - - ZZW 1028,8 24
16.01.2021 09:00:00 -4,4 -6,6 4 2 7 4 ZO 1029,3 30
16.01.2021 08:00:00 -4,0 -7,5 4 2 7 4 Z 1029,6 50
16.01.2021 07:00:00 -3,6 -7,5 7 4 - - OZO 1029,7 45
16.01.2021 06:00:00 -4,1 -6,8 4 2 11 6 O 1030,3 30
16.01.2021 05:00:00 -4,3 -5,9 0 0 7 4 N 1030,9 -
16.01.2021 04:00:00 -4,4 -5,6 4 2 - - ONO 1031,0 5
16.01.2021 03:00:00 -4,1 -5,1 4 2 7 4 ONO 1031,2 2,7
16.01.2021 02:00:00 -4,3 -5,2 4 2 7 4 ONO 1031,2 3,7
16.01.2021 01:00:00 -3,9 -5,6 4 2 - - NNW 1031,5 11
16.01.2021 00:00:00 -3,9 -6,0 0 0 7 4 N 1032,0 14
15.01.2021 23:00:00 -4,2 -5,6 7 4 14 8 NO 1032,0 14
15.01.2021 22:00:00 -4,4 -6,1 4 2 - - NO 1031,8 12
15.01.2021 21:00:00 -5,1 -7,5 14 8 25 14 NO 1031,7 -
15.01.2021 20:00:00 -5,8 -6,8 11 6 18 10 NO 1031,6 2,7
15.01.2021 19:00:00 -4,5 -5,8 11 6 - - NNO 1031,1 4,5
15.01.2021 18:00:00 -4,2 -5,2 7 4 18 10 NO 1030,7 -
15.01.2021 17:00:00 -3,0 -4,4 11 6 25 14 NO 1029,7 5
15.01.2021 16:00:00 -3,0 -4,4 14 8 - - N 1029,3 5
15.01.2021 15:00:00 -3,0 -4,6 14 8 25 14 N 1028,7 5
15.01.2021 14:00:00 -2,9 -5,0 14 8 25 14 NNO 1028,7 -
15.01.2021 13:00:00 -3,2 -5,2 11 6 - - NNO 1028,9 5
15.01.2021 12:00:00 -3,3 -5,3 11 6 14 8 NNO 1028,5 14
15.01.2021 11:00:00 -4,1 -6,1 7 4 14 8 NO 1028,1 29
15.01.2021 10:00:00 -5,4 -7,1 11 6 - - NO 1027,4 26
15.01.2021 09:00:00 -6,0 -7,6 11 6 22 12 NO 1026,6 30
15.01.2021 08:00:00 -5,7 -7,3 14 8 25 14 NO 1025,4 35
15.01.2021 07:00:00 -5,2 -6,7 14 8 - - NO 1024,0 25
15.01.2021 06:00:00 -5,0 -6,6 18 10 29 16 ONO 1023,3 28
15.01.2021 05:00:00 -4,9 -6,5 22 12 32 18 ONO 1022,4 35
15.01.2021 04:00:00 -4,5 -6,1 22 12 - - ONO 1021,5 30
15.01.2021 03:00:00 -3,8 -5,3 18 10 36 19 ONO 1020,8 15
15.01.2021 02:00:00 -3,2 -4,8 22 12 40 21 ONO 1019,3 12
15.01.2021 01:00:00 -2,9 -4,4 25 14 - - ONO 1018,4 4,0
15.01.2021 00:00:00 -2,8 -4,4 22 12 40 21 ONO 1017,8 2,2
14.01.2021 23:00:00 -2,6 -4,2 25 14 36 19 O 1017,1 2,3
14.01.2021 22:00:00 -2,4 -4,0 22 12 - - O 1016,5 3,4
14.01.2021 21:00:00 -2,5 -4,1 22 12 40 21 O 1016,2 2,3
14.01.2021 20:00:00 -2,6 -4,2 22 12 36 19 O 1016,4 1,7
14.01.2021 19:00:00 -2,4 -4,1 22 12 - - OZO 1016,5 3,1
14.01.2021 18:00:00 -2,5 -4,1 22 12 40 21 OZO 1016,8 0,9
14.01.2021 17:00:00 -2,7 -4,2 25 14 40 21 OZO 1017,4 1,9
14.01.2021 16:00:00 -2,4 -4,0 22 12 - - OZO 1017,5 1,3
14.01.2021 15:00:00 -2,1 -3,7 18 10 36 19 OZO 1018,1 2,3
14.01.2021 14:00:00 -2,1 -3,7 22 12 32 18 OZO 1018,8 0,9
14.01.2021 13:00:00 -1,9 -3,6 18 10 - - OZO 1019,6 2,5
14.01.2021 12:00:00 -2,0 -3,6 14 8 25 14 OZO 1020,1 1,4
14.01.2021 11:00:00 -2,1 -3,8 14 8 25 14 O 1020,4 1,9
14.01.2021 10:00:00 -1,4 -2,8 14 8 - - O 1019,7 3,7
14.01.2021 09:00:00 -0,9 -1,7 11 6 14 8 ONO 1019,1 2,9
14.01.2021 08:00:00 -0,9 -1,7 7 4 7 4 NO 1019,1 1,7
14.01.2021 07:00:00 -0,9 -1,7 4 2 - - N 1018,7 2,2
14.01.2021 06:00:00 -0,8 -1,9 7 4 11 6 WNW 1018,8 1,7
14.01.2021 05:00:00 -0,7 -1,3 4 2 11 6 W 1018,7 1,1
14.01.2021 04:00:00 -0,7 -1,6 7 4 - - WNW 1018,6 2,8
14.01.2021 03:00:00 -0,6 -1,4 11 6 18 10 NW 1018,5 0,3
14.01.2021 02:00:00 -0,5 -1,5 14 8 22 12 NW 1018,3 2,2
14.01.2021 01:00:00 -0,4 -1,6 14 8 - - NW 1018,4 2,8
14.01.2021 00:00:00 -0,3 -1,5 18 10 36 19 NNW 1018,6 2,4
13.01.2021 23:00:00 0,3 -1,1 22 12 40 21 NNW 1017,7 3,7
13.01.2021 22:00:00 1,2 0,3 18 10 - - NW 1016,9 3,1
13.01.2021 21:00:00 1,7 1,0 18 10 29 16 WNW 1016,4 1,4
13.01.2021 20:00:00 1,9 1,5 18 10 29 16 WNW 1016,1 0,1
13.01.2021 19:00:00 1,3 1,1 11 6 - - W 1016,2 0,1
13.01.2021 18:00:00 0,5 0,1 7 4 18 10 WZW 1016,6 0,1
13.01.2021 17:00:00 0,3 -0,3 11 6 22 12 WZW 1017,0 0,1
13.01.2021 16:00:00 0,2 -0,5 11 6 - - WZW 1017,5 0,1
13.01.2021 15:00:00 0,1 -1,0 14 8 25 14 WZW 1017,8 5
13.01.2021 14:00:00 -0,1 -1,4 14 8 29 16 WZW 1018,4 -
13.01.2021 13:00:00 -0,2 -1,5 14 8 - - WZW 1019,7 -
13.01.2021 12:00:00 -0,7 -2,1 14 8 25 14 WZW 1020,4 12
13.01.2021 11:00:00 -1,3 -2,6 14 8 22 12 WZW 1021,1 8
13.01.2021 10:00:00 -1,3 -2,4 11 6 - - WZW 1021,1 0,2
13.01.2021 09:00:00 -1,3 -2,1 11 6 18 10 WZW 1021,0 0,1
13.01.2021 08:00:00 -1,0 -1,8 11 6 18 10 WZW 1020,8 0,5
13.01.2021 07:00:00 -1,0 -1,8 7 4 - - WZW 1020,5 0,6
13.01.2021 06:00:00 -0,6 -1,6 7 4 22 12 W 1020,7 -
13.01.2021 05:00:00 -0,5 -1,6 11 6 22 12 W 1020,6 5
13.01.2021 04:00:00 -0,5 -1,4 11 6 - - W 1020,4 -
13.01.2021 03:00:00 -0,5 -1,1 11 6 18 10 W 1020,0 0,2
13.01.2021 02:00:00 -0,8 -1,6 4 2 14 8 W 1020,1 1,7
13.01.2021 01:00:00 -0,7 -1,7 7 4 - - W 1020,1 -
13.01.2021 00:00:00 -0,8 -2,1 11 6 25 14 WNW 1019,6 13
12.01.2021 23:00:00 -0,8 -2,1 14 8 29 16 NW 1018,9 10
12.01.2021 22:00:00 -0,3 -2,2 14 8 - - WNW 1018,1 9
12.01.2021 21:00:00 -0,9 -2,2 7 4 18 10 W 1017,6 25
12.01.2021 20:00:00 -0,6 -2,9 11 6 36 19 NW 1016,6 35
12.01.2021 19:00:00 0,2 -1,6 22 12 - - NNW 1015,3 30
12.01.2021 18:00:00 1,0 -0,2 22 12 43 23 NW 1014,2 14
12.01.2021 17:00:00 1,8 0,7 22 12 40 21 NW 1012,9 8
12.01.2021 16:00:00 2,1 1,1 25 14 - - NW 1011,8 10
12.01.2021 15:00:00 2,7 1,7 29 16 43 23 NW 1010,6 -
12.01.2021 14:00:00 3,4 2,9 25 14 40 21 WNW 1009,9 1,5
12.01.2021 13:00:00 2,8 2,3 14 8 - - W 1010,0 0,4
12.01.2021 12:00:00 1,8 1,3 14 8 36 19 WZW 1010,4 0,1
12.01.2021 11:00:00 1,6 1,1 14 8 32 18 WZW 1010,2 0,2
12.01.2021 10:00:00 1,2 0,6 18 10 - - WZW 1010,4 0,2
12.01.2021 09:00:00 0,7 -0,1 22 12 36 19 ZW 1010,7 0,9
12.01.2021 08:00:00 0,2 -0,5 18 10 36 19 ZW 1011,1 0,3
12.01.2021 07:00:00 0,0 -0,7 18 10 - - ZW 1011,7 0,3
12.01.2021 06:00:00 0,0 -0,7 18 10 36 19 ZW 1012,4 0,3
12.01.2021 05:00:00 0,0 -0,9 18 10 36 19 ZW 1013,2 0,3
12.01.2021 04:00:00 0,0 -0,7 18 10 - - ZW 1014,5 0,1
12.01.2021 03:00:00 0,0 -0,8 22 12 40 21 ZW 1015,3 0,1
12.01.2021 02:00:00 -0,1 -0,9 22 12 40 21 ZW 1015,9 -
12.01.2021 01:00:00 -0,2 -1,0 18 10 - - ZW 1016,8 0,1

tt = temperatuur
td = dauwpunt
ff = windsnelheid
fx = windstoten
dd = windrichting
ppp = luchtdruk
vv = zicht

Weerstations in de omgeving